Time,TemperatureF,DewpointF,PressureIn,WindDirection,WindDirectionDegrees,WindSpeedMPH,WindSpeedGustMPH,Humidity,HourlyPrecipIn,Conditions,Clouds,dailyrainin,SoftwareType,DateUTC
2013-06-06 00:01:00,57.1,41.0,30.01,East,90,4.3,6.3,55,2.59,,,0.27,WUHU216HW,2013-06-06 04:01:00,
2013-06-06 00:06:00,57.1,41.0,30.00,ENE,68,3.4,6.3,55,2.59,,,0.27,WUHU216HW,2013-06-06 04:06:00,
2013-06-06 00:12:00,57.2,41.2,30.00,East,90,7.6,7.6,55,2.59,,,0.27,WUHU216HW,2013-06-06 04:12:00,
2013-06-06 00:17:00,57.1,41.5,30.00,SE,135,3.8,7.6,56,2.59,,,0.27,WUHU216HW,2013-06-06 04:17:00,
2013-06-06 00:22:00,57.1,41.5,30.00,East,90,6.0,7.6,56,2.59,,,0.27,WUHU216HW,2013-06-06 04:22:00,
2013-06-06 00:27:00,57.1,41.9,29.99,SE,135,4.0,7.6,57,2.59,,,0.27,WUHU216HW,2013-06-06 04:27:00,
2013-06-06 00:32:00,56.9,41.8,30.00,ENE,68,4.7,6.9,57,2.59,,,0.27,WUHU216HW,2013-06-06 04:32:00,
2013-06-06 00:37:00,56.9,41.8,30.00,East,90,4.9,7.4,57,2.59,,,0.27,WUHU216HW,2013-06-06 04:37:00,
2013-06-06 00:42:00,56.9,42.3,30.00,ESE,113,4.7,7.4,58,2.59,,,0.27,WUHU216HW,2013-06-06 04:42:00,
2013-06-06 00:47:00,56.9,42.3,30.00,East,90,4.3,7.6,58,2.59,,,0.27,WUHU216HW,2013-06-06 04:47:00,
2013-06-06 00:52:00,57.1,42.5,29.99,ENE,68,6.3,7.6,58,2.59,,,0.27,WUHU216HW,2013-06-06 04:52:00,
2013-06-06 00:57:00,57.1,42.5,30.00,SE,135,4.5,6.3,58,2.59,,,0.27,WUHU216HW,2013-06-06 04:57:00,
2013-06-06 01:02:00,57.2,43.1,30.00,ESE,113,6.9,8.5,59,2.59,,,0.54,WUHU216HW,2013-06-06 05:02:00,
2013-06-06 01:07:00,57.2,43.1,29.99,ESE,113,4.3,8.5,59,2.59,,,0.54,WUHU216HW,2013-06-06 05:07:00,
2013-06-06 01:12:00,57.2,43.1,29.99,East,90,4.3,7.4,59,2.59,,,0.54,WUHU216HW,2013-06-06 05:12:00,
2013-06-06 01:17:00,57.1,42.9,29.99,ESE,113,5.6,7.4,59,2.59,,,0.54,WUHU216HW,2013-06-06 05:17:00,
2013-06-06 01:22:00,56.9,42.8,29.99,SE,135,5.4,6.5,59,2.59,,,0.54,WUHU216HW,2013-06-06 05:22:00,
2013-06-06 01:27:00,56.7,43.0,29.98,ENE,68,4.5,6.9,60,2.59,,,0.54,WUHU216HW,2013-06-06 05:27:00,
2013-06-06 01:32:00,56.7,43.0,29.98,East,90,5.1,6.9,60,2.59,,,0.54,WUHU216HW,2013-06-06 05:32:00,
2013-06-06 01:37:00,56.5,42.8,29.98,SE,135,4.7,6.9,60,2.59,,,0.54,WUHU216HW,2013-06-06 05:37:00,
2013-06-06 01:42:00,56.5,42.8,29.98,East,90,5.6,6.7,60,2.59,,,0.54,WUHU216HW,2013-06-06 05:42:00,
2013-06-06 01:47:00,56.5,43.2,29.98,ESE,113,5.8,9.2,61,2.59,,,0.54,WUHU216HW,2013-06-06 05:47:00,
2013-06-06 01:52:00,56.7,43.4,29.98,SE,135,5.4,9.2,61,2.59,,,0.54,WUHU216HW,2013-06-06 05:52:00,
2013-06-06 01:57:00,56.5,43.2,29.98,SE,135,6.9,9.8,61,2.59,,,0.54,WUHU216HW,2013-06-06 05:57:00,
2013-06-06 02:02:00,56.5,43.7,29.98,ENE,68,9.2,9.8,62,2.59,,,0.82,WUHU216HW,2013-06-06 06:02:00,
2013-06-06 02:07:00,56.5,43.7,29.98,ESE,113,4.7,9.8,62,2.59,,,0.82,WUHU216HW,2013-06-06 06:07:00,
2013-06-06 02:12:00,56.5,43.7,29.97,East,90,6.9,9.8,62,2.59,,,0.82,WUHU216HW,2013-06-06 06:12:00,
2013-06-06 02:17:00,56.5,43.7,29.96,ESE,113,8.9,10.5,62,2.59,,,0.82,WUHU216HW,2013-06-06 06:17:00,
2013-06-06 02:22:00,56.3,43.9,29.96,ESE,113,9.4,10.5,63,2.59,,,0.82,WUHU216HW,2013-06-06 06:22:00,
2013-06-06 02:27:00,56.3,43.9,29.96,ENE,68,4.9,10.7,63,2.59,,,0.82,WUHU216HW,2013-06-06 06:27:00,
2013-06-06 02:32:00,56.3,44.3,29.96,East,90,5.4,10.7,64,2.59,,,0.82,WUHU216HW,2013-06-06 06:32:00,
2013-06-06 02:37:00,56.3,43.9,29.96,ESE,113,6.7,9.8,63,2.59,,,0.82,WUHU216HW,2013-06-06 06:37:00,
2013-06-06 02:42:00,56.5,44.5,29.96,ESE,113,6.0,9.6,64,2.59,,,0.82,WUHU216HW,2013-06-06 06:42:00,
2013-06-06 02:47:00,56.5,44.0,29.96,ESE,113,6.0,12.1,63,2.59,,,0.82,WUHU216HW,2013-06-06 06:47:00,
2013-06-06 02:52:00,56.5,44.5,29.95,ESE,113,6.9,13.2,64,2.59,,,0.82,WUHU216HW,2013-06-06 06:52:00,
2013-06-06 02:57:00,56.5,44.5,29.95,South,180,5.4,13.2,64,2.59,,,0.82,WUHU216HW,2013-06-06 06:57:00,
2013-06-06 03:02:00,56.5,44.5,29.95,ENE,68,9.8,10.3,64,2.59,,,1.09,WUHU216HW,2013-06-06 07:02:00,
2013-06-06 03:07:00,56.5,44.5,29.95,East,90,12.1,12.1,64,2.59,,,1.09,WUHU216HW,2013-06-06 07:07:00,
2013-06-06 03:12:00,56.5,44.5,29.94,SSE,158,5.8,12.1,64,2.59,,,1.09,WUHU216HW,2013-06-06 07:12:00,
2013-06-06 03:17:00,56.5,44.5,29.94,ESE,113,8.3,12.1,64,2.59,,,1.09,WUHU216HW,2013-06-06 07:17:00,
2013-06-06 03:22:00,56.5,44.8,29.94,East,90,9.6,10.3,65,2.59,,,1.09,WUHU216HW,2013-06-06 07:22:00,
2013-06-06 03:27:00,56.7,45.0,29.94,SE,135,6.3,10.3,65,2.59,,,1.09,WUHU216HW,2013-06-06 07:27:00,
2013-06-06 03:32:00,56.7,45.0,29.94,ESE,113,5.4,10.1,65,2.59,,,1.09,WUHU216HW,2013-06-06 07:32:00,
2013-06-06 03:37:00,56.7,45.0,29.93,SE,135,5.4,9.4,65,2.59,,,1.09,WUHU216HW,2013-06-06 07:37:00,
2013-06-06 03:42:00,56.7,45.0,29.93,SSE,158,5.1,9.4,65,2.59,,,1.09,WUHU216HW,2013-06-06 07:42:00,
2013-06-06 03:47:00,56.7,45.0,29.93,ESE,113,3.1,9.2,65,2.59,,,1.09,WUHU216HW,2013-06-06 07:47:00,
2013-06-06 03:52:00,56.7,45.5,29.92,ENE,68,3.8,7.6,66,2.59,,,1.09,WUHU216HW,2013-06-06 07:52:00,
2013-06-06 03:57:00,56.7,45.5,29.92,SE,135,3.8,9.2,66,2.59,,,1.09,WUHU216HW,2013-06-06 07:57:00,
2013-06-06 04:02:00,56.5,45.3,29.91,ESE,113,4.0,9.2,66,2.59,,,1.37,WUHU216HW,2013-06-06 08:02:00,
2013-06-06 04:07:00,56.5,45.3,29.91,ESE,113,6.9,7.8,66,2.59,,,1.37,WUHU216HW,2013-06-06 08:07:00,
2013-06-06 04:12:00,56.5,45.6,29.90,SE,135,4.0,9.2,67,2.59,,,1.37,WUHU216HW,2013-06-06 08:12:00,
2013-06-06 04:17:00,56.5,45.6,29.90,ESE,113,4.3,9.2,67,2.59,,,1.37,WUHU216HW,2013-06-06 08:17:00,
2013-06-06 04:22:00,56.3,45.5,29.90,ENE,68,6.5,7.6,67,2.59,,,1.37,WUHU216HW,2013-06-06 08:22:00,
2013-06-06 04:27:00,56.2,45.7,29.90,SSE,158,4.0,7.6,68,2.59,,,1.37,WUHU216HW,2013-06-06 08:27:00,
2013-06-06 04:32:00,56.2,45.7,29.90,SE,135,5.4,6.9,68,2.59,,,1.37,WUHU216HW,2013-06-06 08:32:00,
2013-06-06 04:37:00,56.2,45.7,29.90,ESE,113,4.7,6.3,68,2.59,,,1.37,WUHU216HW,2013-06-06 08:37:00,
2013-06-06 04:42:00,56.2,45.7,29.90,East,90,3.1,6.3,68,2.59,,,1.37,WUHU216HW,2013-06-06 08:42:00,
2013-06-06 04:47:00,56.2,45.7,29.90,East,90,4.9,6.7,68,2.59,,,1.37,WUHU216HW,2013-06-06 08:47:00,
2013-06-06 04:52:00,56.3,45.9,29.90,ENE,68,4.3,6.7,68,2.59,,,1.37,WUHU216HW,2013-06-06 08:52:00,
2013-06-06 04:57:00,56.5,46.1,29.90,East,90,6.7,6.7,68,2.59,,,1.37,WUHU216HW,2013-06-06 08:57:00,
2013-06-06 05:02:00,56.5,46.1,29.90,East,90,4.7,6.9,68,2.59,,,1.64,WUHU216HW,2013-06-06 09:02:00,
2013-06-06 05:07:00,56.5,46.1,29.90,East,90,4.3,6.9,68,2.59,,,1.64,WUHU216HW,2013-06-06 09:07:00,
2013-06-06 05:12:00,56.5,46.4,29.91,West,270,1.6,6.9,69,2.59,,,1.64,WUHU216HW,2013-06-06 09:12:00,
2013-06-06 05:17:00,56.5,46.4,29.91,ESE,113,1.6,5.4,69,2.59,,,1.64,WUHU216HW,2013-06-06 09:17:00,
2013-06-06 05:22:00,56.5,46.4,29.91,NE,45,4.5,4.9,69,2.59,,,1.64,WUHU216HW,2013-06-06 09:22:00,
2013-06-06 05:27:00,56.5,46.4,29.91,ESE,113,3.4,4.9,69,2.59,,,1.64,WUHU216HW,2013-06-06 09:27:00,
2013-06-06 05:32:00,56.5,46.4,29.92,East,90,3.4,6.3,69,2.59,,,1.64,WUHU216HW,2013-06-06 09:32:00,
2013-06-06 05:37:00,56.5,46.4,29.91,NE,45,5.8,6.3,69,2.59,,,1.64,WUHU216HW,2013-06-06 09:37:00,
2013-06-06 05:42:00,56.7,46.6,29.91,SE,135,1.8,6.3,69,2.59,,,1.64,WUHU216HW,2013-06-06 09:42:00,
2013-06-06 05:47:00,56.7,46.6,29.92,East,90,5.8,6.3,69,2.59,,,1.64,WUHU216HW,2013-06-06 09:47:00,
2013-06-06 05:52:00,56.9,46.8,29.91,SE,135,3.4,5.8,69,2.59,,,1.64,WUHU216HW,2013-06-06 09:52:00,
2013-06-06 05:57:00,56.9,46.8,29.91,ESE,113,3.8,8.1,69,2.59,,,1.64,WUHU216HW,2013-06-06 09:57:00,
2013-06-06 06:02:00,56.9,46.8,29.91,East,90,3.6,8.1,69,2.59,,,1.91,WUHU216HW,2013-06-06 10:02:00,
2013-06-06 06:07:00,57.1,47.0,29.91,ENE,68,5.4,6.7,69,2.59,,,1.91,WUHU216HW,2013-06-06 10:07:00,
2013-06-06 06:12:00,57.1,47.0,29.92,ESE,113,6.7,6.7,69,2.59,,,1.91,WUHU216HW,2013-06-06 10:12:00,
2013-06-06 06:17:00,57.1,47.3,29.92,NNE,23,5.4,8.5,70,2.59,,,1.91,WUHU216HW,2013-06-06 10:17:00,
2013-06-06 06:22:00,57.1,47.3,29.92,ESE,113,6.5,8.5,70,2.59,,,1.91,WUHU216HW,2013-06-06 10:22:00,
2013-06-06 06:27:00,57.1,47.7,29.93,ESE,113,6.5,7.8,71,2.59,,,1.91,WUHU216HW,2013-06-06 10:27:00,
2013-06-06 06:32:00,57.1,48.1,29.92,ENE,68,6.3,10.5,72,2.59,,,1.91,WUHU216HW,2013-06-06 10:32:00,
2013-06-06 06:37:00,56.9,48.2,29.93,ESE,113,4.5,10.5,73,2.60,,,1.93,WUHU216HW,2013-06-06 10:37:00,
2013-06-06 06:42:00,56.7,48.4,29.93,SE,135,3.6,8.5,74,2.61,,,1.93,WUHU216HW,2013-06-06 10:42:00,
2013-06-06 06:47:00,56.5,48.6,29.93,East,90,4.9,8.5,75,2.65,,,1.98,WUHU216HW,2013-06-06 10:47:00,
2013-06-06 06:52:00,56.2,49.0,29.93,SE,135,4.9,7.4,77,2.69,,,2.00,WUHU216HW,2013-06-06 10:52:00,
2013-06-06 06:57:00,55.8,49.0,29.93,ESE,113,4.9,7.4,78,2.70,,,2.03,WUHU216HW,2013-06-06 10:57:00,
2013-06-06 07:02:00,55.4,48.6,29.93,East,90,4.5,6.0,78,2.72,,,2.45,WUHU216HW,2013-06-06 11:02:00,
2013-06-06 07:07:00,55.4,49.0,29.93,ESE,113,5.4,6.5,79,2.72,,,2.46,WUHU216HW,2013-06-06 11:07:00,
2013-06-06 07:12:00,55.1,49.0,29.93,East,90,7.2,7.2,80,2.75,,,2.49,WUHU216HW,2013-06-06 11:12:00,
2013-06-06 07:17:00,55.1,49.3,29.93,East,90,4.7,7.2,81,2.87,,,2.61,WUHU216HW,2013-06-06 11:17:00,
2013-06-06 07:22:00,54.7,49.0,29.92,SE,135,5.1,6.5,81,2.91,,,2.65,WUHU216HW,2013-06-06 11:22:00,
2013-06-06 07:27:00,54.7,48.7,29.93,ESE,113,4.7,6.7,80,2.94,,,2.68,WUHU216HW,2013-06-06 11:27:00,
2013-06-06 07:32:00,54.7,49.3,29.92,ESE,113,3.4,6.9,82,2.94,,,2.69,WUHU216HW,2013-06-06 11:32:00,
2013-06-06 07:37:00,54.5,49.1,29.93,NE,45,4.9,7.8,82,2.98,,,2.74,WUHU216HW,2013-06-06 11:37:00,
2013-06-06 07:42:00,54.5,49.1,29.92,SE,135,5.4,7.8,82,3.00,,,2.76,WUHU216HW,2013-06-06 11:42:00,
2013-06-06 07:47:00,54.4,49.3,29.92,ESE,113,3.6,9.6,83,2.94,,,2.76,WUHU216HW,2013-06-06 11:47:00,
2013-06-06 07:52:00,54.4,49.6,29.92,ESE,113,4.7,9.6,84,2.91,,,2.76,WUHU216HW,2013-06-06 11:52:00,
2013-06-06 07:57:00,54.2,49.4,29.92,ESE,113,6.3,6.7,84,2.89,,,2.76,WUHU216HW,2013-06-06 11:57:00,
2013-06-06 08:02:00,54.2,49.4,29.92,ESE,113,4.7,7.4,84,2.89,,,3.47,WUHU216HW,2013-06-06 12:02:00,
2013-06-06 08:07:00,54.0,49.6,29.92,ESE,113,4.0,7.4,85,2.89,,,3.47,WUHU216HW,2013-06-06 12:07:00,
2013-06-06 08:12:00,54.0,49.6,29.92,ESE,113,5.6,8.5,85,2.87,,,3.48,WUHU216HW,2013-06-06 12:12:00,
2013-06-06 08:17:00,54.0,49.9,29.92,SE,135,3.8,8.5,86,2.73,,,3.48,WUHU216HW,2013-06-06 12:17:00,
2013-06-06 08:22:00,54.0,49.9,29.91,SE,135,4.7,7.8,86,2.70,,,3.49,WUHU216HW,2013-06-06 12:22:00,
2013-06-06 08:27:00,54.0,49.9,29.91,ENE,68,6.3,7.8,86,2.70,,,3.50,WUHU216HW,2013-06-06 12:27:00,
2013-06-06 08:32:00,53.8,50.1,29.91,ENE,68,6.5,6.9,87,2.69,,,3.50,WUHU216HW,2013-06-06 12:32:00,
2013-06-06 08:37:00,53.8,50.1,29.90,SSW,203,2.5,7.2,87,2.62,,,3.50,WUHU216HW,2013-06-06 12:37:00,
2013-06-06 08:42:00,54.0,50.2,29.90,SE,135,4.0,7.2,87,2.62,,,3.50,WUHU216HW,2013-06-06 12:42:00,
2013-06-06 08:47:00,54.2,50.7,29.91,ESE,113,4.0,6.3,88,2.62,,,3.50,WUHU216HW,2013-06-06 12:47:00,
2013-06-06 08:52:00,54.4,50.9,29.90,South,180,4.7,6.3,88,2.62,,,3.50,WUHU216HW,2013-06-06 12:52:00,
2013-06-06 08:57:00,54.4,50.9,29.90,ESE,113,5.1,7.6,88,2.62,,,3.50,WUHU216HW,2013-06-06 12:57:00,
2013-06-06 09:02:00,54.5,51.0,29.90,SSE,158,4.0,7.6,88,2.62,,,4.24,WUHU216HW,2013-06-06 13:02:00,
2013-06-06 09:07:00,54.4,50.9,29.90,East,90,4.3,7.2,88,2.62,,,4.24,WUHU216HW,2013-06-06 13:07:00,
2013-06-06 09:12:00,54.5,51.0,29.90,ESE,113,4.5,7.2,88,2.61,,,4.24,WUHU216HW,2013-06-06 13:12:00,
2013-06-06 09:17:00,54.5,51.0,29.90,SE,135,4.7,5.8,88,2.60,,,4.24,WUHU216HW,2013-06-06 13:17:00,
2013-06-06 09:22:00,54.5,51.0,29.90,East,90,5.4,6.9,88,2.61,,,4.25,WUHU216HW,2013-06-06 13:22:00,
2013-06-06 09:27:00,54.7,51.2,29.90,SE,135,4.0,6.9,88,2.60,,,4.25,WUHU216HW,2013-06-06 13:27:00,
2013-06-06 09:32:00,54.7,51.2,29.90,ESE,113,4.0,8.3,88,2.60,,,4.25,WUHU216HW,2013-06-06 13:32:00,
2013-06-06 09:37:00,54.7,51.2,29.90,South,180,6.0,8.3,88,2.61,,,4.26,WUHU216HW,2013-06-06 13:37:00,
2013-06-06 09:42:00,54.7,51.5,29.90,ESE,113,4.9,7.2,89,2.61,,,4.26,WUHU216HW,2013-06-06 13:42:00,
2013-06-06 09:47:00,54.9,51.7,29.90,ESE,113,5.4,7.4,89,2.62,,,4.27,WUHU216HW,2013-06-06 13:47:00,
2013-06-06 09:52:00,55.1,51.8,29.90,SE,135,6.7,8.9,89,2.62,,,4.27,WUHU216HW,2013-06-06 13:52:00,
2013-06-06 09:57:00,55.1,51.8,29.90,SE,135,3.4,8.9,89,2.63,,,4.28,WUHU216HW,2013-06-06 13:57:00,
2013-06-06 10:02:00,55.3,52.0,29.90,ESE,113,5.1,6.9,89,2.63,,,5.06,WUHU216HW,2013-06-06 14:02:00,
2013-06-06 10:07:00,55.3,52.0,29.89,SSW,203,4.7,6.5,89,2.64,,,5.08,WUHU216HW,2013-06-06 14:07:00,
2013-06-06 10:13:00,55.4,52.2,29.89,ESE,113,5.1,6.9,89,2.64,,,5.08,WUHU216HW,2013-06-06 14:13:00,
2013-06-06 10:18:00,55.6,52.4,29.89,East,90,5.8,7.4,89,2.64,,,5.08,WUHU216HW,2013-06-06 14:18:00,
2013-06-06 10:23:00,55.8,52.6,29.89,East,90,4.7,7.6,89,2.64,,,5.08,WUHU216HW,2013-06-06 14:23:00,
2013-06-06 10:28:00,56.0,52.7,29.88,ESE,113,6.5,7.6,89,2.65,,,5.09,WUHU216HW,2013-06-06 14:28:00,
2013-06-06 10:33:00,56.2,52.9,29.88,SE,135,2.9,8.5,89,2.64,,,5.09,WUHU216HW,2013-06-06 14:33:00,
2013-06-06 10:38:00,56.2,52.9,29.88,ESE,113,5.4,8.5,89,2.65,,,5.10,WUHU216HW,2013-06-06 14:38:00,
2013-06-06 10:43:00,56.3,53.1,29.88,South,180,6.9,8.7,89,2.65,,,5.10,WUHU216HW,2013-06-06 14:43:00,
2013-06-06 10:48:00,56.5,53.3,29.88,ESE,113,8.5,9.2,89,2.65,,,5.11,WUHU216HW,2013-06-06 14:48:00,
2013-06-06 10:53:00,56.5,53.3,29.88,NE,45,6.3,9.2,89,2.64,,,5.11,WUHU216HW,2013-06-06 14:53:00,
2013-06-06 10:58:00,56.5,53.3,29.88,SSE,158,5.4,8.9,89,2.65,,,5.13,WUHU216HW,2013-06-06 14:58:00,
2013-06-06 11:03:00,56.5,53.3,29.87,SE,135,6.3,9.8,89,2.65,,,5.97,WUHU216HW,2013-06-06 15:03:00,
2013-06-06 11:08:00,56.5,53.3,29.87,SE,135,6.5,9.8,89,2.64,,,5.97,WUHU216HW,2013-06-06 15:08:00,
2013-06-06 11:13:00,56.7,53.5,29.87,East,90,4.7,9.6,89,2.63,,,5.97,WUHU216HW,2013-06-06 15:13:00,
2013-06-06 11:18:00,56.9,53.6,29.87,ESE,113,5.1,8.5,89,2.63,,,5.97,WUHU216HW,2013-06-06 15:18:00,
2013-06-06 11:23:00,57.1,53.8,29.87,ESE,113,5.8,8.5,89,2.64,,,5.98,WUHU216HW,2013-06-06 15:23:00,
2013-06-06 11:28:00,57.1,53.8,29.87,ESE,113,3.8,8.5,89,2.63,,,5.98,WUHU216HW,2013-06-06 15:28:00,
2013-06-06 11:33:00,56.9,53.6,29.87,East,90,3.8,7.8,89,2.62,,,5.98,WUHU216HW,2013-06-06 15:33:00,
2013-06-06 11:38:00,57.1,53.8,29.87,ENE,68,8.3,8.3,89,2.62,,,5.98,WUHU216HW,2013-06-06 15:38:00,
2013-06-06 11:43:00,57.1,53.8,29.87,ESE,113,3.8,8.3,89,2.63,,,5.99,WUHU216HW,2013-06-06 15:43:00,
2013-06-06 11:48:00,57.1,53.8,29.87,ESE,113,4.7,8.3,89,2.62,,,5.99,WUHU216HW,2013-06-06 15:48:00,
2013-06-06 11:53:00,57.2,54.0,29.87,SE,135,4.5,7.6,89,2.62,,,5.99,WUHU216HW,2013-06-06 15:53:00,
2013-06-06 11:58:00,57.2,54.0,29.87,ESE,113,3.4,7.6,89,2.62,,,6.00,WUHU216HW,2013-06-06 15:58:00,
2013-06-06 12:03:00,57.2,54.0,29.87,East,90,4.7,5.4,89,2.62,,,6.88,WUHU216HW,2013-06-06 16:03:00,
2013-06-06 12:08:00,57.2,54.0,29.87,ESE,113,3.6,5.4,89,2.63,,,6.89,WUHU216HW,2013-06-06 16:08:00,
2013-06-06 12:13:00,57.4,54.2,29.87,SE,135,4.7,6.0,89,2.63,,,6.89,WUHU216HW,2013-06-06 16:13:00,
2013-06-06 12:18:00,57.6,54.4,29.87,ENE,68,4.0,6.0,89,2.63,,,6.90,WUHU216HW,2013-06-06 16:18:00,
2013-06-06 12:23:00,57.6,54.4,29.87,NE,45,1.8,5.4,89,2.64,,,6.91,WUHU216HW,2013-06-06 16:23:00,
2013-06-06 12:28:00,57.6,54.1,29.87,East,90,2.0,4.9,88,2.65,,,6.92,WUHU216HW,2013-06-06 16:28:00,
2013-06-06 12:33:00,57.8,54.3,29.87,ENE,68,2.9,3.4,88,2.66,,,6.93,WUHU216HW,2013-06-06 16:33:00,
2013-06-06 12:38:00,57.8,54.3,29.86,East,90,3.4,4.5,88,2.69,,,6.95,WUHU216HW,2013-06-06 16:38:00,
2013-06-06 12:43:00,58.0,54.5,29.86,SE,135,2.5,4.9,88,2.70,,,6.98,WUHU216HW,2013-06-06 16:43:00,
2013-06-06 12:48:00,58.0,54.7,29.86,ESE,113,3.8,6.3,89,2.72,,,7.00,WUHU216HW,2013-06-06 16:48:00,
2013-06-06 12:53:00,58.0,54.7,29.86,NE,45,1.1,6.3,89,2.73,,,7.01,WUHU216HW,2013-06-06 16:53:00,
2013-06-06 12:58:00,58.0,54.7,29.86,ESE,113,0.4,4.7,89,2.76,,,7.04,WUHU216HW,2013-06-06 16:58:00,
2013-06-06 13:03:00,58.0,54.5,29.86,East,90,3.8,4.7,88,2.78,,,8.16,WUHU216HW,2013-06-06 17:03:00,
2013-06-06 13:08:00,58.0,54.5,29.86,East,90,1.3,4.7,88,2.78,,,8.17,WUHU216HW,2013-06-06 17:08:00,
2013-06-06 13:13:00,58.1,54.6,29.86,SE,135,2.7,4.0,88,2.80,,,8.20,WUHU216HW,2013-06-06 17:13:00,
2013-06-06 13:18:00,58.1,54.9,29.85,East,90,1.8,4.3,89,2.82,,,8.22,WUHU216HW,2013-06-06 17:18:00,
2013-06-06 13:23:00,58.3,55.4,29.85,NNE,23,4.0,4.3,90,2.83,,,8.23,WUHU216HW,2013-06-06 17:23:00,
2013-06-06 13:28:00,58.1,54.6,29.85,ESE,113,2.5,4.3,88,2.82,,,8.25,WUHU216HW,2013-06-06 17:28:00,
2013-06-06 13:33:00,58.3,55.1,29.85,SE,135,4.0,4.0,89,2.83,,,8.27,WUHU216HW,2013-06-06 17:33:00,
2013-06-06 13:38:00,58.3,55.4,29.85,ESE,113,2.2,4.0,90,2.82,,,8.29,WUHU216HW,2013-06-06 17:38:00,
2013-06-06 13:43:00,58.5,55.6,29.85,ESE,113,2.0,4.9,90,2.82,,,8.30,WUHU216HW,2013-06-06 17:43:00,
2013-06-06 13:48:00,58.7,55.8,29.85,ESE,113,3.8,4.9,90,2.80,,,8.32,WUHU216HW,2013-06-06 17:48:00,
2013-06-06 13:53:00,58.7,55.8,29.85,East,90,4.0,6.0,90,2.79,,,8.32,WUHU216HW,2013-06-06 17:53:00,
2013-06-06 13:58:00,58.7,55.8,29.85,ENE,68,4.7,6.0,90,2.76,,,8.34,WUHU216HW,2013-06-06 17:58:00,
2013-06-06 14:03:00,58.9,56.0,29.85,East,90,3.4,5.4,90,0.18,,,8.34,WUHU216HW,2013-06-06 18:03:00,
2013-06-06 14:08:00,58.9,56.3,29.85,ESE,113,3.4,5.4,91,0.17,,,8.37,WUHU216HW,2013-06-06 18:08:00,
2013-06-06 14:13:00,59.0,56.4,29.85,ESE,113,3.4,4.0,91,0.17,,,8.39,WUHU216HW,2013-06-06 18:13:00,
2013-06-06 14:18:00,59.0,56.4,29.85,ENE,68,4.0,4.0,91,0.18,,,8.41,WUHU216HW,2013-06-06 18:18:00,
2013-06-06 14:23:00,59.2,56.6,29.85,East,90,2.5,4.0,91,0.17,,,8.41,WUHU216HW,2013-06-06 18:23:00,
2013-06-06 14:28:00,59.4,56.8,29.85,ESE,113,2.5,4.0,91,0.18,,,8.45,WUHU216HW,2013-06-06 18:28:00,
2013-06-06 14:33:00,59.4,56.8,29.85,East,90,2.5,4.0,91,0.18,,,8.46,WUHU216HW,2013-06-06 18:33:00,
2013-06-06 14:38:00,59.4,56.8,29.84,ESE,113,4.3,4.3,91,0.18,,,8.48,WUHU216HW,2013-06-06 18:38:00,
2013-06-06 14:43:00,59.6,57.0,29.84,SE,135,2.5,4.3,91,0.21,,,8.52,WUHU216HW,2013-06-06 18:43:00,
2013-06-06 14:48:00,59.8,57.2,29.84,SE,135,3.1,4.3,91,0.22,,,8.55,WUHU216HW,2013-06-06 18:48:00,
2013-06-06 14:53:00,59.8,57.2,29.84,ESE,113,3.4,4.3,91,0.23,,,8.57,WUHU216HW,2013-06-06 18:53:00,
2013-06-06 14:58:00,59.8,57.2,29.84,East,90,1.8,4.3,91,0.24,,,8.59,WUHU216HW,2013-06-06 18:58:00,
2013-06-06 15:03:00,59.8,57.2,29.84,ESE,113,1.6,3.4,91,2.84,,,8.86,WUHU216HW,2013-06-06 19:03:00,
2013-06-06 15:08:00,59.9,57.3,29.84,SE,135,1.3,2.9,91,2.83,,,8.88,WUHU216HW,2013-06-06 19:08:00,
2013-06-06 15:13:00,59.9,57.3,29.84,South,180,0.4,2.7,91,2.82,,,8.89,WUHU216HW,2013-06-06 19:13:00,
2013-06-06 15:18:00,60.1,57.2,29.84,SW,225,0.0,2.0,90,2.82,,,8.90,WUHU216HW,2013-06-06 19:18:00,
2013-06-06 15:23:00,60.1,57.2,29.84,SW,225,1.8,2.5,90,2.80,,,8.91,WUHU216HW,2013-06-06 19:23:00,
2013-06-06 15:28:00,60.5,57.9,29.84,SE,135,1.1,2.5,91,2.79,,,8.92,WUHU216HW,2013-06-06 19:28:00,
2013-06-06 15:33:00,60.7,58.1,29.83,SSE,158,2.2,4.7,91,2.78,,,8.93,WUHU216HW,2013-06-06 19:33:00,
2013-06-06 15:34:00,60.7,58.1,29.83,SSE,158,2.7,4.7,91,2.78,,,8.93,WUHU216HW,2013-06-06 19:34:00,
2013-06-06 15:39:00,60.7,57.8,29.83,SSE,158,2.0,4.7,90,2.77,,,8.93,WUHU216HW,2013-06-06 19:39:00,
2013-06-06 15:44:00,60.7,57.8,29.83,SSE,158,2.5,6.3,90,2.71,,,8.93,WUHU216HW,2013-06-06 19:44:00,
2013-06-06 15:49:00,60.5,57.6,29.82,SSW,203,1.8,6.3,90,2.70,,,8.95,WUHU216HW,2013-06-06 19:49:00,
2013-06-06 15:54:00,60.5,57.6,29.82,ESE,113,4.7,6.0,90,2.68,,,8.95,WUHU216HW,2013-06-06 19:54:00,
2013-06-06 15:59:00,60.5,57.6,29.82,ESE,113,4.7,5.4,90,2.67,,,8.95,WUHU216HW,2013-06-06 19:59:00,
2013-06-06 16:04:00,60.7,57.8,29.82,SSE,158,3.4,6.0,90,2.65,,,9.29,WUHU216HW,2013-06-06 20:04:00,
2013-06-06 16:09:00,60.7,57.8,29.82,South,180,6.0,6.3,90,2.65,,,9.29,WUHU216HW,2013-06-06 20:09:00,
2013-06-06 16:14:00,60.5,57.6,29.82,ESE,113,2.9,6.3,90,2.64,,,9.30,WUHU216HW,2013-06-06 20:14:00,
2013-06-06 16:19:00,60.5,57.6,29.82,SE,135,4.9,5.6,90,2.64,,,9.30,WUHU216HW,2013-06-06 20:19:00,
2013-06-06 16:24:00,60.3,57.4,29.82,South,180,2.2,5.6,90,2.63,,,9.31,WUHU216HW,2013-06-06 20:24:00,
2013-06-06 16:29:00,60.3,57.4,29.82,SSE,158,4.0,5.6,90,2.63,,,9.31,WUHU216HW,2013-06-06 20:29:00,
2013-06-06 16:34:00,60.1,57.2,29.82,SE,135,3.6,5.8,90,2.62,,,9.31,WUHU216HW,2013-06-06 20:34:00,
2013-06-06 16:39:00,60.1,57.2,29.81,SSE,158,2.5,5.8,90,2.63,,,9.32,WUHU216HW,2013-06-06 20:39:00,
2013-06-06 16:44:00,60.3,57.4,29.81,South,180,4.7,5.8,90,2.63,,,9.33,WUHU216HW,2013-06-06 20:44:00,
2013-06-06 16:49:00,60.1,57.2,29.81,SE,135,3.6,6.0,90,2.63,,,9.33,WUHU216HW,2013-06-06 20:49:00,
2013-06-06 16:54:00,60.1,57.2,29.81,SSE,158,3.4,6.0,90,2.63,,,9.33,WUHU216HW,2013-06-06 20:54:00,
2013-06-06 16:59:00,60.1,57.2,29.81,South,180,3.8,6.3,90,2.64,,,9.34,WUHU216HW,2013-06-06 20:59:00,
2013-06-06 17:04:00,60.1,57.2,29.81,SE,135,2.7,6.3,90,2.64,,,9.74,WUHU216HW,2013-06-06 21:04:00,
2013-06-06 17:09:00,60.1,56.9,29.81,ESE,113,2.7,6.0,89,2.64,,,9.74,WUHU216HW,2013-06-06 21:09:00,
2013-06-06 17:14:00,60.1,56.9,29.81,East,90,2.9,6.0,89,2.63,,,9.74,WUHU216HW,2013-06-06 21:14:00,
2013-06-06 17:19:00,59.9,56.7,29.81,South,180,3.8,5.6,89,2.63,,,9.74,WUHU216HW,2013-06-06 21:19:00,
2013-06-06 17:24:00,59.9,56.7,29.81,SE,135,4.5,4.7,89,2.62,,,9.74,WUHU216HW,2013-06-06 21:24:00,
2013-06-06 17:29:00,60.1,56.9,29.81,SE,135,3.4,4.9,89,2.63,,,9.74,WUHU216HW,2013-06-06 21:29:00,
2013-06-06 17:31:00,60.1,56.9,29.81,SE,135,2.2,2.2,89,2.63,,,9.74,WUHU216HW,2013-06-06 21:31:00,
2013-06-06 17:34:00,60.1,56.9,29.81,SE,135,2.2,4.9,89,2.63,,,9.74,WUHU216HW,2013-06-06 21:34:00,
2013-06-06 17:39:00,60.1,56.9,29.81,SE,135,2.2,3.4,89,2.63,,,9.74,WUHU216HW,2013-06-06 21:39:00,
2013-06-06 20:00:00,59.9,57.1,29.78,ESE,113,2.5,2.5,90,2.59,,,9.74,WUHU216HW,2013-06-07 00:00:00,
2013-06-06 20:05:00,59.9,57.1,29.78,ENE,68,1.1,2.5,90,2.59,,,11.11,WUHU216HW,2013-06-07 00:05:00,
2013-06-06 20:10:00,59.9,57.1,29.78,East,90,2.0,2.5,90,2.59,,,11.11,WUHU216HW,2013-06-07 00:10:00,
2013-06-06 20:15:00,60.1,57.2,29.78,ESE,113,2.2,2.5,90,2.59,,,11.11,WUHU216HW,2013-06-07 00:15:00,
2013-06-06 20:20:00,60.1,57.2,29.78,ESE,113,1.1,2.5,90,2.59,,,11.11,WUHU216HW,2013-06-07 00:20:00,
2013-06-06 20:25:00,60.1,57.2,29.78,SE,135,1.8,2.9,90,2.59,,,11.11,WUHU216HW,2013-06-07 00:25:00,
2013-06-06 20:30:00,60.1,57.2,29.78,ESE,113,2.7,3.4,90,2.59,,,11.11,WUHU216HW,2013-06-07 00:30:00,
2013-06-06 20:35:00,60.1,57.2,29.78,SE,135,1.8,3.4,90,2.59,,,11.11,WUHU216HW,2013-06-07 00:35:00,
2013-06-06 20:40:00,59.9,57.1,29.78,SE,135,2.7,3.1,90,2.59,,,11.11,WUHU216HW,2013-06-07 00:40:00,
2013-06-06 20:45:00,59.8,56.9,29.78,ESE,113,1.3,3.4,90,2.59,,,11.11,WUHU216HW,2013-06-07 00:45:00,
2013-06-06 20:50:00,59.8,56.9,29.78,East,90,1.3,3.4,90,2.59,,,11.11,WUHU216HW,2013-06-07 00:50:00,
2013-06-06 20:55:00,59.8,56.9,29.78,East,90,2.0,2.7,90,2.59,,,11.11,WUHU216HW,2013-06-07 00:55:00,
2013-06-06 21:00:00,59.8,56.9,29.78,SE,135,1.6,2.7,90,2.59,,,11.11,WUHU216HW,2013-06-07 01:00:00,
2013-06-06 21:05:00,59.8,56.9,29.78,East,90,3.1,3.4,90,2.59,,,11.56,WUHU216HW,2013-06-07 01:05:00,
2013-06-06 21:10:00,59.6,56.7,29.78,ESE,113,1.8,3.4,90,2.59,,,11.56,WUHU216HW,2013-06-07 01:10:00,
2013-06-06 21:15:00,59.6,56.7,29.77,ESE,113,2.7,3.4,90,2.59,,,11.56,WUHU216HW,2013-06-07 01:15:00,
2013-06-06 21:20:00,59.6,56.7,29.78,SE,135,1.8,3.1,90,2.59,,,11.56,WUHU216HW,2013-06-07 01:20:00,
2013-06-06 21:25:00,59.6,56.7,29.78,ESE,113,2.5,3.1,90,2.59,,,11.56,WUHU216HW,2013-06-07 01:25:00,
2013-06-06 21:30:00,59.6,56.7,29.79,ESE,113,1.3,3.4,90,2.59,,,11.56,WUHU216HW,2013-06-07 01:30:00,
2013-06-06 21:35:00,59.6,56.7,29.78,ENE,68,0.9,3.4,90,2.59,,,11.56,WUHU216HW,2013-06-07 01:35:00,
2013-06-06 21:40:00,59.6,56.7,29.78,East,90,0.9,2.5,90,2.59,,,11.56,WUHU216HW,2013-06-07 01:40:00,
2013-06-06 21:45:00,59.6,56.7,29.79,ESE,113,2.0,2.5,90,2.59,,,11.56,WUHU216HW,2013-06-07 01:45:00,
2013-06-06 21:50:00,59.6,56.7,29.79,SE,135,2.2,3.4,90,2.59,,,11.56,WUHU216HW,2013-06-07 01:50:00,
2013-06-06 21:55:00,59.6,56.7,29.79,SE,135,3.4,4.5,90,2.59,,,11.56,WUHU216HW,2013-06-07 01:55:00,
2013-06-06 22:00:00,59.6,56.7,29.79,East,90,2.5,4.5,90,2.59,,,11.56,WUHU216HW,2013-06-07 02:00:00,
2013-06-06 22:05:00,59.4,56.5,29.79,ESE,113,3.1,3.6,90,2.59,,,12.00,WUHU216HW,2013-06-07 02:05:00,
2013-06-06 22:10:00,59.4,56.5,29.79,East,90,2.7,3.6,90,2.59,,,12.00,WUHU216HW,2013-06-07 02:10:00,
2013-06-06 22:15:00,59.4,56.5,29.79,SE,135,2.7,3.4,90,2.59,,,12.00,WUHU216HW,2013-06-07 02:15:00,
2013-06-06 22:20:00,59.4,56.5,29.79,East,90,3.4,3.8,90,2.59,,,12.00,WUHU216HW,2013-06-07 02:20:00,
2013-06-06 22:25:00,59.2,56.3,29.79,SE,135,1.8,3.8,90,2.59,,,12.00,WUHU216HW,2013-06-07 02:25:00,
2013-06-06 22:30:00,59.2,56.3,29.79,ESE,113,1.8,3.4,90,2.59,,,12.00,WUHU216HW,2013-06-07 02:30:00,
2013-06-06 22:35:00,59.2,56.3,29.79,ESE,113,1.8,2.2,90,2.59,,,12.00,WUHU216HW,2013-06-07 02:35:00,
2013-06-06 23:00:00,59.0,56.2,29.79,East,90,2.5,2.5,90,0.02,,,12.00,WUHU216HW,2013-06-07 03:00:00,
2013-06-06 23:05:00,59.0,56.2,29.79,East,90,2.5,2.5,90,0.02,,,12.00,WUHU216HW,2013-06-07 03:05:00,